{"data":{"norad_id":62019,"epoch":"2026-05-25T01:10:16.391712Z","epoch_age_seconds":77662,"freshness":"FRESH","line1":"1 62019U 24213M   26145.04880083  .00137798  00000+0  11215-2 0  9995","line2":"2 62019  53.1573  25.1772 0001104  43.7699 316.3407 15.69752029 86905","mean_motion":15.69752029,"eccentricity":0.0001104,"inclination_deg":53.1573,"raan_deg":25.1772,"arg_perigee_deg":43.7699,"mean_anomaly_deg":316.3407,"bstar":0.0011215,"rev_number":8690,"period_min":91.734234031686,"perigee_km":358.86263531267,"apogee_km":360.35032907354,"semimajor_km":6737.7434821931,"source":"CELESTRAK","updated_at":"2026-05-25T13:38:19.520992Z"}}